TimeCDT,TemperatureF,Dew PointF,Humidity,Sea Level PressureIn,VisibilityMPH,Wind Direction,Wind SpeedMPH,Gust SpeedMPH,PrecipitationIn,Events,Conditions,WindDirDegrees,DateUTC
12:53 AM,15.1,10.0,80,29.88,10.0,NW,5.8,-,N/A,,Overcast,310,2013-03-12 05:53:00
1:53 AM,9.0,6.1,88,29.88,10.0,NW,8.1,-,N/A,,Overcast,320,2013-03-12 06:53:00
2:53 AM,6.1,3.0,87,29.89,10.0,NW,8.1,-,N/A,,Mostly Cloudy,320,2013-03-12 07:53:00
3:53 AM,12.0,8.1,84,29.90,10.0,NW,8.1,-,N/A,,Overcast,320,2013-03-12 08:53:00
4:53 AM,14.0,10.0,84,29.91,5.0,NW,9.2,-,0.00,Snow,Light Snow,320,2013-03-12 09:53:00
5:18 AM,15.8,10.4,79,29.84,2.0,NW,8.1,-,0.00,Snow,Light Snow,320,2013-03-12 10:18:00
5:25 AM,15.8,10.4,79,29.84,1.8,NW,8.1,-,0.00,Snow,Light Snow,310,2013-03-12 10:25:00
5:32 AM,15.8,10.4,79,29.84,2.0,NW,8.1,-,0.00,Snow,Light Snow,310,2013-03-12 10:32:00
5:39 AM,14.0,10.4,86,29.85,3.0,NW,6.9,-,0.00,Snow,Light Snow,310,2013-03-12 10:39:00
5:53 AM,14.0,10.0,84,29.94,4.0,NW,8.1,-,0.00,Snow,Light Snow,310,2013-03-12 10:53:00
6:13 AM,14.0,10.4,86,29.86,2.0,NW,8.1,-,0.00,Snow,Light Snow,310,2013-03-12 11:13:00
6:26 AM,14.0,10.4,86,29.86,2.5,NW,6.9,-,0.00,Snow,Light Snow,310,2013-03-12 11:26:00
6:50 AM,14.0,10.4,86,29.87,3.0,WNW,8.1,-,0.00,Snow,Light Snow,290,2013-03-12 11:50:00
6:53 AM,14.0,10.9,88,29.96,3.0,WNW,6.9,-,0.00,Snow,Light Snow,290,2013-03-12 11:53:00
7:53 AM,15.1,10.9,84,29.98,2.5,NW,10.4,-,0.00,Snow,Light Snow,320,2013-03-12 12:53:00
8:23 AM,15.8,10.4,79,29.90,5.0,NW,9.2,-,0.00,Snow,Light Snow,320,2013-03-12 13:23:00
8:53 AM,16.0,10.0,77,29.99,10.0,NW,10.4,-,0.00,,Overcast,320,2013-03-12 13:53:00
9:53 AM,18.0,10.0,71,30.01,10.0,NNW,13.8,-,N/A,,Overcast,330,2013-03-12 14:53:00
10:53 AM,21.0,12.0,68,30.02,10.0,NW,13.8,-,N/A,,Overcast,320,2013-03-12 15:53:00
11:53 AM,21.9,10.0,60,30.04,10.0,North,18.4,23.0,N/A,,Mostly Cloudy,350,2013-03-12 16:53:00
12:53 PM,23.0,8.1,53,30.06,10.0,North,17.3,27.6,N/A,,Mostly Cloudy,350,2013-03-12 17:53:00
1:53 PM,23.0,8.1,53,30.08,10.0,NNW,16.1,26.5,N/A,,Scattered Clouds,340,2013-03-12 18:53:00
2:53 PM,23.0,9.0,55,30.09,10.0,NNW,19.6,24.2,N/A,,Partly Cloudy,330,2013-03-12 19:53:00
3:53 PM,24.1,9.0,53,30.10,10.0,NNW,17.3,23.0,N/A,,Clear,330,2013-03-12 20:53:00
4:53 PM,25.0,9.0,51,30.12,10.0,North,17.3,24.2,N/A,,Clear,350,2013-03-12 21:53:00
5:53 PM,24.1,8.1,51,30.15,10.0,NNW,12.7,-,N/A,,Clear,340,2013-03-12 22:53:00
6:53 PM,21.0,10.0,63,30.18,10.0,NW,11.5,-,N/A,,Clear,320,2013-03-12 23:53:00
7:53 PM,18.0,10.9,74,30.22,10.0,NW,12.7,-,N/A,,Clear,320,2013-03-13 00:53:00
8:53 PM,17.1,10.9,77,30.25,10.0,NW,18.4,21.9,N/A,,Scattered Clouds,310,2013-03-13 01:53:00
9:00 PM,17.6,10.4,73,30.16,10.0,NW,16.1,-,N/A,,Mostly Cloudy,320,2013-03-13 02:00:00
9:12 PM,15.8,10.4,79,30.16,10.0,NW,10.4,-,N/A,,Scattered Clouds,320,2013-03-13 02:12:00
9:53 PM,15.1,10.9,84,30.27,10.0,NNW,10.4,-,N/A,,Scattered Clouds,330,2013-03-13 02:53:00
10:53 PM,12.0,8.1,84,30.28,10.0,NW,9.2,-,N/A,,Clear,320,2013-03-13 03:53:00
11:53 PM,6.1,3.0,87,30.28,10.0,WNW,5.8,-,N/A,,Clear,300,2013-03-13 04:53:00